GW0575 Weather Reports


time (UTC)temp
F
wind
direction
speed
knots
gust
knots
rain 1hr
in
rain 24hr
in
rain mn
in
humidity
%
barometer
mb
20260507060517 57 156 0.9 1.7 0.00 0.08 0.00 97 1006.1
20260507055517 57 353 0.0 0.9 0.00 0.08 0.00 97 1006.2
20260507054521 57 200 0.9 2.6 0.00 0.08 0.00 97 1006.3
20260507053521 57 193 0.9 1.7 0.00 0.08 0.00 97 1006.3
20260507052518 57 197 1.7 2.6 0.00 0.08 0.00 97 1006.4
20260507051538 57 185 0.9 1.7 0.00 0.08 0.00 97 1006.5
20260507050518 57 199 1.7 1.7 0.00 0.08 0.00 97 1006.6
20260507045518 57 194 0.9 1.7 0.00 0.08 0.00 97 1006.6
20260507044519 57 165 2.6 3.5 0.00 0.08 0.00 97 1006.6
20260507043519 57 147 0.0 0.9 0.00 0.08 0.00 97 1006.7
20260507042519 57 164 1.7 2.6 0.00 0.08 0.00 97 1006.4
20260507041519 56 147 0.9 0.9 0.00 0.08 0.00 97 1006.4
20260507040519 56 199 0.9 2.6 0.00 0.08 0.00 97 1006.5
20260507035516 56 227 1.7 4.3 0.00 0.08 0.08 97 1006.4
20260507034520 56 212 2.6 4.3 0.00 0.08 0.08 97 1006.6
20260507033520 56 194 3.5 4.3 0.00 0.08 0.08 97 1006.8
20260507032517 56 172 1.7 1.7 0.00 0.08 0.08 97 1006.7
20260507031518 56 167 1.7 2.6 0.00 0.08 0.08 97 1006.7
20260507030517 56 189 2.6 5.2 0.00 0.08 0.08 97 1006.6
20260507025520 56 205 1.7 3.5 0.00 0.08 0.08 97 1006.5
20260507024521 56 173 1.7 3.5 0.00 0.08 0.08 97 1006.5
20260507023518 56 187 1.7 4.3 0.00 0.08 0.08 97 1006.6
20260507022518 56 182 3.5 6.1 0.00 0.08 0.08 97 1006.4
20260507021519 56 191 2.6 5.2 0.00 0.08 0.08 97 1006.7
20260507020518 56 182 3.5 6.1 0.00 0.08 0.08 97 1006.6
20260507015515 56 202 1.7 3.5 0.00 0.08 0.08 97 1006.8
20260507014518 56 187 1.7 3.5 0.00 0.08 0.08 97 1007.0
20260507013518 56 214 3.5 5.2 0.00 0.08 0.08 97 1006.9
20260507012519 56 182 3.5 5.2 0.00 0.08 0.08 97 1007.1
20260507011519 56 201 4.3 6.1 0.00 0.08 0.08 97 1007.0
20260507010516 56 176 3.5 5.2 0.00 0.08 0.08 97 1007.1
20260507005539 56 156 1.7 3.5 0.00 0.08 0.08 97 1007.1
20260507004520 56 207 2.6 3.5 0.01 0.08 0.08 97 1007.1
20260507003520 56 196 4.3 7.0 0.01 0.08 0.08 97 1007.0
20260507002520 56 182 5.2 9.6 0.01 0.08 0.08 97 1007.0
20260507001517 56 198 2.6 6.1 0.01 0.08 0.08 97 1007.1
20260507000517 56 196 3.5 4.3 0.01 0.08 0.08 97 1007.1
20260506235541 56 183 4.3 6.1 0.01 0.08 0.08 96 1007.0
20260506234520 56 168 3.5 5.2 0.00 0.07 0.07 96 1007.0
20260506233517 56 214 6.1 7.8 0.00 0.07 0.07 96 1007.1
20260506232518 55 203 2.6 4.3 0.00 0.07 0.07 96 1007.2
20260506231518 55 202 3.5 5.2 0.01 0.07 0.07 96 1007.3
20260506230518 55 183 7.0 10.4 0.01 0.07 0.07 96 1007.2
20260506225518 56 210 2.6 3.5 0.01 0.07 0.07 96 1007.2
20260506224518 56 193 3.5 4.3 0.01 0.07 0.07 96 1007.0
20260506223519 56 176 3.5 6.1 0.01 0.07 0.07 96 1007.2
20260506222519 56 192 5.2 7.8 0.00 0.07 0.07 95 1007.3
20260506221519 56 178 3.5 6.1 0.00 0.06 0.06 95 1007.6
20260506220516 56 184 4.3 6.1 0.00 0.06 0.06 95 1007.6
20260506215516 56 193 3.5 7.0 0.00 0.06 0.06 94 1007.7
20260506214520 57 178 4.3 7.8 0.00 0.06 0.06 93 1007.7
20260506213519 57 184 2.6 5.2 0.00 0.06 0.06 93 1007.8
20260506212537 57 182 2.6 6.1 0.00 0.06 0.06 93 1007.9
20260506211518 57 182 1.7 4.3 0.00 0.06 0.06 93 1007.9
20260506210540 57 183 7.0 9.6 0.00 0.06 0.06 92 1008.0
20260506205521 57 197 7.8 11.3 0.02 0.06 0.06 92 1008.1
20260506204518 57 177 5.2 7.8 0.03 0.06 0.06 92 1008.0
20260506203517 58 183 5.2 9.6 0.05 0.06 0.06 92 1008.2
20260506202538 58 206 5.2 8.7 0.06 0.06 0.06 92 1008.1
20260506201538 58 206 4.3 6.1 0.06 0.06 0.06 92 1008.3
20260506200518 59 189 5.2 7.0 0.06 0.06 0.06 92 1008.2
20260506195519 59 204 6.1 12.2 0.04 0.04 0.04 89 1008.3
20260506194518 60 204 4.3 7.0 0.03 0.03 0.03 86 1008.6
20260506193518 61 177 3.5 6.1 0.01 0.01 0.01 84 1008.6
20260506192519 62 191 4.3 6.1 0.00 0.00 0.00 80 1008.6
20260506191519 62 171 7.0 13.0 0.00 0.00 0.00 77 1008.2
20260506190519 62 190 4.3 7.0 0.00 0.00 0.00 76 1008.2
20260506185539 62 184 4.3 9.6 0.00 0.00 0.00 76 1008.1
20260506184540 62 181 3.5 6.1 0.00 0.00 0.00 76 1008.1
20260506183519 63 193 4.3 7.0 0.00 0.00 0.00 75 1008.4
20260506182517 63 191 6.1 7.8 0.00 0.00 0.00 74 1008.5
20260506181538 64 181 3.5 6.1 0.00 0.00 0.00 73 1008.3
20260506180538 64 170 6.1 9.6 0.00 0.00 0.00 73 1008.5
20260506175517 65 201 6.1 9.6 0.00 0.00 0.00 72 1008.8
20260506173517 65 206 5.2 7.8 0.00 0.00 0.00 71 1008.8
20260506172517 65 180 5.2 8.7 0.00 0.00 0.00 70 1008.5
20260506171538 65 172 5.2 8.7 0.00 0.00 0.00 71 1008.8
20260506170521 65 171 7.8 10.4 0.00 0.00 0.00 70 1007.3
20260506165518 65 167 4.3 7.0 0.00 0.00 0.00 72 1008.4
20260506164518 64 185 6.1 9.6 0.00 0.00 0.00 72 1008.8
20260506163518 65 174 5.2 7.8 0.00 0.00 0.00 71 1008.9
20260506162519 64 195 4.3 6.1 0.00 0.00 0.00 71 1008.8
20260506161539 65 175 7.8 10.4 0.00 0.00 0.00 72 1009.3
20260506160519 65 173 5.2 10.4 0.00 0.00 0.00 71 1009.2
20260506155519 65 192 3.5 6.1 0.00 0.00 0.00 71 1009.4
20260506154519 65 190 3.5 7.0 0.00 0.00 0.00 72 1009.1
20260506153519 65 180 4.3 8.7 0.00 0.00 0.00 70 1008.8
20260506152517 65 187 7.8 10.4 0.00 0.00 0.00 71 1009.1
20260506151517 64 177 7.0 9.6 0.00 0.00 0.00 71 1009.5
20260506150520 64 168 6.1 7.8 0.00 0.00 0.00 73 1009.5
20260506145520 64 172 4.3 8.7 0.00 0.00 0.00 73 1009.7
20260506144540 64 180 5.2 7.8 0.00 0.00 0.00 72 1009.7
20260506143517 64 184 7.0 13.9 0.00 0.00 0.00 73 1009.7
20260506142558 64 216 5.2 8.7 0.00 0.00 0.00 72 1009.5
20260506141518 65 173 6.1 8.7 0.00 0.00 0.00 71 1009.3
20260506140518 66 163 5.2 7.8 0.00 0.00 0.00 70 1009.4
20260506135518 66 181 6.1 7.8 0.00 0.00 0.00 69 1009.0
20260506134518 66 184 6.1 10.4 0.00 0.00 0.00 69 1008.8
20260506133518 64 167 3.5 7.0 0.00 0.00 0.00 71 1009.2
20260506132519 63 184 4.3 7.8 0.00 0.00 0.00 74 1009.5
20260506131519 62 203 3.5 5.2 0.00 0.00 0.00 76 1009.7
20260506130540 62 178 3.5 7.0 0.00 0.00 0.00 77 1010.0
20260506125519 61 192 2.6 4.3 0.00 0.00 0.00 79 1010.1
20260506124519 60 165 2.6 4.3 0.00 0.00 0.00 81 1009.9
20260506123519 60 173 7.0 9.6 0.00 0.00 0.00 82 1010.0
20260506122516 60 192 1.7 3.5 0.00 0.00 0.00 82 1009.5
20260506121517 59 195 7.0 9.6 0.00 0.00 0.00 84 1010.0
20260506120520 58 187 6.1 8.7 0.00 0.00 0.00 85 1011.1
20260506115520 59 198 7.0 8.7 0.00 0.00 0.00 84 1010.7
20260506114518 58 199 4.3 7.0 0.00 0.00 0.00 85 1010.6
20260506113518 58 204 5.2 7.8 0.00 0.00 0.00 85 1010.5
20260506112537 57 189 3.5 7.0 0.00 0.00 0.00 87 1010.6
20260506111538 57 182 2.6 5.2 0.00 0.00 0.00 88 1010.9
20260506110521 57 190 1.7 2.6 0.00 0.00 0.00 89 1011.0
20260506105518 57 161 3.5 5.2 0.00 0.00 0.00 89 1011.1
20260506104519 57 191 1.7 3.5 0.00 0.00 0.00 89 1011.1
20260506103519 56 175 3.5 7.8 0.00 0.00 0.00 90 1011.1
20260506102539 56 171 3.5 5.2 0.00 0.00 0.00 90 1011.1
20260506101536 56 156 2.6 6.1 0.00 0.00 0.00 91 1011.1
20260506100517 56 182 2.6 3.5 0.00 0.00 0.00 91 1011.1
20260506095536 56 172 4.3 6.1 0.00 0.00 0.00 91 1011.0
20260506094520 56 191 1.7 2.6 0.00 0.00 0.00 90 1011.1
20260506093518 56 176 2.6 3.5 0.00 0.00 0.00 90 1011.1
20260506092557 56 160 3.5 7.0 0.00 0.00 0.00 90 1011.1
20260506091517 56 172 2.6 4.3 0.00 0.00 0.00 89 1011.2
20260506090521 56 184 2.6 4.3 0.00 0.00 0.00 89 1011.2
20260506085602 56 172 2.6 3.5 0.00 0.00 0.00 89 1011.2
20260506084518 56 165 1.7 3.5 0.00 0.00 0.00 89 1011.3
20260506083538 57 169 2.6 4.3 0.00 0.00 0.00 88 1011.4
20260506082518 57 174 2.6 4.3 0.00 0.00 0.00 88 1011.3
20260506081518 57 163 2.6 4.3 0.00 0.00 0.00 87 1011.4
20260506080518 57 178 2.6 4.3 0.00 0.00 0.00 87 1011.5
20260506073520 57 197 2.6 4.3 0.00 0.00 0.00 86 1011.2
20260506072539 57 197 4.3 5.2 0.00 0.00 0.00 85 1011.3
20260506071516 58 183 4.3 6.1 0.00 0.00 0.00 84 1011.1
20260506070520 58 194 3.5 6.1 0.00 0.00 0.00 84 1011.2
20260506061517 59 211 5.2 8.7 0.00 0.00 0.00 81 1010.9